EW8085 Weather Reports


Display with metric or nautical units.
time (UTC)temp
F
wind
direction
speed
MPH
gust
MPH
rain 1hr
in
rain 24hr
in
rain mn
in
humidity
%
barometer
mb
20190422160026 80 173 0.0 0.0 0.00 0.00 0.00 29 1021.4
20190422154608 79 127 0.0 0.0 0.00 0.00 0.00 32 1021.5
20190422153045 79 94 0.0 0.0 0.00 0.00 0.00 32 1021.6
20190422151517 77 164 0.0 0.0 0.00 0.00 0.00 35 1021.6
20190422150006 76 11 0.0 0.0 0.00 0.00 0.00 39 1021.7
20190422144509 75 62 0.0 0.0 0.00 0.00 0.00 44 1021.5
20190422143112 73 103 0.0 0.0 0.00 0.00 0.00 52 1021.5
20190422141647 72 62 0.0 0.0 0.00 0.00 0.00 55 1021.5
20190422140116 70 40 0.0 0.0 0.00 0.00 0.00 59 1021.6
20190422134634 68 40 0.0 0.0 0.00 0.00 0.00 65 1021.5
20190422133118 66 40 0.0 0.0 0.00 0.00 0.00 70 1021.6
20190422131651 63 40 0.0 0.0 0.00 0.00 0.00 73 1021.7
20190422130049 61 310 0.0 0.0 0.00 0.00 0.00 77 1021.7
20190422124550 59 310 0.0 0.0 0.00 0.00 0.00 80 1021.6
20190422123048 56 313 0.0 0.0 0.00 0.00 0.00 84 1021.5
20190422121542 54 313 0.0 0.0 0.00 0.00 0.00 86 1021.5
20190422120104 52 313 0.0 0.0 0.00 0.00 0.00 85 1021.5
20190422114649 52 313 0.0 0.0 0.00 0.00 0.00 84 1021.5
20190422113039 52 313 0.0 0.0 0.00 0.00 0.00 83 1021.2
20190422111540 52 313 0.0 0.0 0.00 0.00 0.00 82 1020.9
20190422110051 53 313 0.0 0.0 0.00 0.00 0.00 80 1020.7
20190422104545 54 313 0.0 0.0 0.00 0.00 0.00 79 1020.6
20190422103028 55 313 0.0 0.0 0.00 0.00 0.00 79 1020.4
20190422101524 55 313 0.0 0.0 0.00 0.00 0.00 79 1020.2
20190422100050 55 313 0.0 0.0 0.00 0.00 0.00 79 1020.3
20190422094523 55 313 0.0 0.0 0.00 0.00 0.00 79 1020.2
20190422093016 55 313 0.0 0.0 0.00 0.00 0.00 79 1020.1
20190422091532 54 313 0.0 0.0 0.00 0.00 0.00 80 1020.0
20190422090016 54 313 0.0 0.0 0.00 0.00 0.00 82 1019.9
20190422084537 53 313 0.0 0.0 0.00 0.00 0.00 83 1019.8
20190422083031 53 313 0.0 0.0 0.00 0.00 0.00 84 1019.9
20190422081519 53 313 0.0 0.0 0.00 0.00 0.00 84 1019.8
20190422080017 53 313 0.0 0.0 0.00 0.00 0.00 85 1019.9
20190422074514 52 313 0.0 0.0 0.00 0.00 0.00 86 1019.8
20190422073018 52 313 0.0 0.0 0.00 0.00 0.00 87 1019.8
20190422071511 51 313 0.0 0.0 0.00 0.00 0.00 86 1019.8
20190422070009 51 313 0.0 0.0 0.00 0.00 0.00 85 1019.8
20190422064721 52 313 0.0 0.0 0.00 0.00 0.00 85 1020.0
20190422063119 52 313 0.0 0.0 0.00 0.00 0.00 83 1020.1
20190422061648 52 313 0.0 0.0 0.00 0.00 0.00 83 1020.3
20190422060137 53 313 0.0 0.0 0.00 0.00 0.00 82 1020.5
20190422054706 53 313 0.0 0.0 0.00 0.00 0.00 82 1020.7
20190422053155 53 313 0.0 0.0 0.00 0.00 0.00 82 1020.8
20190422051650 54 313 0.0 0.0 0.00 0.00 0.00 81 1020.9
20190422050115 54 313 0.0 0.0 0.00 0.00 0.00 80 1020.8
20190422044556 54 313 0.0 0.0 0.00 0.00 0.00 79 1020.8
20190422043121 55 313 0.0 0.0 0.00 0.00 0.00 78 1020.8
20190422041601 55 313 0.0 0.0 0.00 0.00 0.00 77 1020.9
20190422040049 56 313 0.0 0.0 0.00 0.00 0.00 76 1020.9
20190422034550 56 313 0.0 0.0 0.00 0.00 0.00 75 1020.9
20190422033128 57 313 0.0 0.0 0.00 0.00 0.00 74 1020.7
20190422031558 57 313 0.0 0.0 0.00 0.00 0.00 73 1020.7
20190422030124 58 313 0.0 0.0 0.00 0.00 0.00 72 1020.7
20190422024546 59 313 0.0 0.0 0.00 0.00 0.00 71 1020.6
20190422023046 59 313 0.0 0.0 0.00 0.00 0.00 69 1020.5
20190422021550 60 313 0.0 0.0 0.00 0.00 0.00 68 1020.4
20190422020043 60 313 0.0 0.0 0.00 0.00 0.00 65 1020.3
20190422014528 61 313 0.0 0.0 0.00 0.00 0.00 64 1020.1
20190422013033 62 313 0.0 0.0 0.00 0.00 0.00 62 1020.0
20190422011543 63 313 0.0 0.0 0.00 0.00 0.00 59 1019.8
20190422010128 64 313 0.0 0.0 0.00 0.00 0.00 57 1019.6
20190422004601 65 313 0.0 0.0 0.00 0.00 0.00 56 1019.4
20190422003046 66 313 0.0 0.0 0.00 0.00 0.00 53 1019.2
20190422001609 67 313 0.0 0.0 0.00 0.00 0.00 51 1019.0
20190422000114 68 313 0.0 0.0 0.00 0.00 0.00 50 1019.0
20190421234559 68 313 0.0 0.0 0.00 0.00 0.00 49 1018.9
20190421233036 69 325 0.0 0.0 0.00 0.00 0.00 46 1018.9
20190421231535 69 344 0.0 0.0 0.00 0.00 0.00 45 1018.8
20190421230053 69 329 0.0 0.0 0.00 0.00 0.00 44 1018.7
20190421224546 70 323 0.0 0.0 0.00 0.00 0.00 42 1018.8
20190421223045 70 296 0.0 0.0 0.00 0.00 0.00 39 1018.7
20190421221602 71 336 0.0 0.0 0.00 0.00 0.00 41 1018.8
20190421220037 72 273 0.0 0.0 0.00 0.00 0.00 40 1018.7
20190421214529 72 323 0.0 0.0 0.00 0.00 0.00 38 1018.8
20190421213026 72 302 0.0 0.0 0.00 0.00 0.00 36 1018.6
20190421211556 72 328 0.0 0.0 0.00 0.00 0.00 36 1018.7
20190421210041 72 333 0.0 0.0 0.00 0.00 0.00 35 1018.6
20190421204536 73 315 0.0 0.0 0.00 0.00 0.00 34 1018.7
20190421203048 74 309 0.0 0.0 0.00 0.00 0.00 33 1018.7
20190421201540 74 288 0.0 0.0 0.00 0.00 0.00 33 1018.8
20190421200029 74 118 0.0 0.0 0.00 0.00 0.00 33 1018.9
20190421194520 73 289 0.0 0.0 0.00 0.00 0.00 31 1019.0
20190421193015 74 225 0.0 0.0 0.00 0.00 0.00 30 1019.1
20190421191534 74 350 0.0 0.0 0.00 0.00 0.00 30 1019.2
20190421190016 74 319 0.0 0.0 0.00 0.00 0.00 29 1019.3
20190421184545 75 306 0.0 0.0 0.00 0.00 0.00 28 1019.3
20190421183014 74 330 0.0 0.0 0.00 0.00 0.00 29 1019.4
20190421181509 75 286 0.0 0.0 0.00 0.00 0.00 27 1019.6
20190421180002 74 324 0.0 0.0 0.00 0.00 0.00 30 1019.7
20190421173147 74 301 0.0 0.0 0.00 0.00 0.00 29 1019.7
20190421171651 74 291 0.0 0.0 0.00 0.00 0.00 28 1019.8
20190421170248 75 355 0.0 0.0 0.00 0.00 0.00 29 1019.8
20190421164712 74 323 0.0 0.0 0.00 0.00 0.00 30 1019.9
20190421163211 74 332 0.0 0.0 0.00 0.00 0.00 31 1020.0
20190421161616 73 303 0.0 0.0 0.00 0.00 0.00 31 1019.9